owner,sensor,date,latitude,longitude,vertical_datum,wind_speed,wind_to_direction,wind_speed_of_gust,qcFlag 
LUMCON,ioos:station:LUMCON:102:1,2017-06-01T00:00:00Z,29.1870,-90.6093,0.0,2.8,227.0,-9999.0,'1111122,1111122,1111122' 
LUMCON,ioos:station:LUMCON:102:1,2017-06-01T00:15:00Z,29.1870,-90.6093,0.0,2.8,219.0,-9999.0,'1111122,1111122,1111122' 
LUMCON,ioos:station:LUMCON:102:1,2017-06-01T00:30:00Z,29.1870,-90.6093,0.0,2.4,213.0,-9999.0,'1111122,1111122,1111122' 
LUMCON,ioos:station:LUMCON:102:1,2017-06-01T00:45:00Z,29.1870,-90.6093,0.0,2.2,216.0,-9999.0,'1111122,1111122,1111122' 
LUMCON,ioos:station:LUMCON:102:1,2017-06-01T01:00:00Z,29.1870,-90.6093,0.0,2.1,202.0,-9999.0,'1111122,1111122,1111122' 
LUMCON,ioos:station:LUMCON:102:1,2017-06-01T01:15:00Z,29.1870,-90.6093,0.0,2.4,164.0,-9999.0,'1111122,1111122,1111122' 
LUMCON,ioos:station:LUMCON:102:1,2017-06-01T01:30:00Z,29.1870,-90.6093,0.0,2.7,159.0,-9999.0,'1111122,1111122,1111122' 
LUMCON,ioos:station:LUMCON:102:1,2017-06-01T01:45:00Z,29.1870,-90.6093,0.0,2.9,152.0,-9999.0,'1111122,1111122,1111122' 
LUMCON,ioos:station:LUMCON:102:1,2017-06-01T02:00:00Z,29.1870,-90.6093,0.0,3.5,150.0,-9999.0,'1111122,1111122,1111122' 
LUMCON,ioos:station:LUMCON:102:1,2017-06-01T02:15:00Z,29.1870,-90.6093,0.0,3.9,154.0,-9999.0,'1111122,1111122,1111122' 
LUMCON,ioos:station:LUMCON:102:1,2017-06-01T02:30:00Z,29.1870,-90.6093,0.0,3.3,141.0,-9999.0,'1111122,1111122,1111122' 
LUMCON,ioos:station:LUMCON:102:1,2017-06-01T02:45:00Z,29.1870,-90.6093,0.0,8.2,74.0,-9999.0,'1111122,1111122,1111122' 
LUMCON,ioos:station:LUMCON:102:1,2017-06-01T03:00:00Z,29.1870,-90.6093,0.0,10.8,89.0,-9999.0,'1111122,1111122,1111122' 
LUMCON,ioos:station:LUMCON:102:1,2017-06-01T03:15:00Z,29.1870,-90.6093,0.0,8.7,69.0,-9999.0,'1111122,1111122,1111122' 
LUMCON,ioos:station:LUMCON:102:1,2017-06-01T03:30:00Z,29.1870,-90.6093,0.0,8.0,83.0,-9999.0,'1111122,1111122,1111122' 
LUMCON,ioos:station:LUMCON:102:1,2017-06-01T03:45:00Z,29.1870,-90.6093,0.0,9.4,104.0,-9999.0,'1111122,1111122,1111122' 
LUMCON,ioos:station:LUMCON:102:1,2017-06-01T04:00:00Z,29.1870,-90.6093,0.0,7.7,108.0,-9999.0,'1111122,1111122,1111122' 
LUMCON,ioos:station:LUMCON:102:1,2017-06-01T04:15:00Z,29.1870,-90.6093,0.0,7.7,108.0,-9999.0,'1111122,1111122,1111122' 
LUMCON,ioos:station:LUMCON:102:1,2017-06-01T04:30:00Z,29.1870,-90.6093,0.0,7.2,120.0,-9999.0,'1111122,1111122,1111122' 
LUMCON,ioos:station:LUMCON:102:1,2017-06-01T04:45:00Z,29.1870,-90.6093,0.0,6.1,117.0,-9999.0,'1111122,1111122,1111122' 
LUMCON,ioos:station:LUMCON:102:1,2017-06-01T05:00:00Z,29.1870,-90.6093,0.0,6.0,118.0,-9999.0,'1111122,1111122,1111122' 
LUMCON,ioos:station:LUMCON:102:1,2017-06-01T05:15:00Z,29.1870,-90.6093,0.0,6.2,146.0,-9999.0,'1111122,1111122,1111122' 
LUMCON,ioos:station:LUMCON:102:1,2017-06-01T05:30:00Z,29.1870,-90.6093,0.0,6.3,131.0,-9999.0,'1111122,1111122,1111122' 
LUMCON,ioos:station:LUMCON:102:1,2017-06-01T05:45:00Z,29.1870,-90.6093,0.0,5.9,155.0,-9999.0,'1111122,1111122,1111122' 
LUMCON,ioos:station:LUMCON:102:1,2017-06-01T06:00:00Z,29.1870,-90.6093,0.0,5.4,153.0,-9999.0,'1111122,1111122,1111122' 
LUMCON,ioos:station:LUMCON:102:1,2017-06-01T06:15:00Z,29.1870,-90.6093,0.0,6.0,161.0,-9999.0,'1111122,1111122,1111122' 
LUMCON,ioos:station:LUMCON:102:1,2017-06-01T06:30:00Z,29.1870,-90.6093,0.0,7.6,155.0,-9999.0,'1111122,1111122,1111122' 
LUMCON,ioos:station:LUMCON:102:1,2017-06-01T06:45:00Z,29.1870,-90.6093,0.0,6.8,169.0,-9999.0,'1111122,1111122,1111122' 
LUMCON,ioos:station:LUMCON:102:1,2017-06-01T07:00:00Z,29.1870,-90.6093,0.0,8.1,159.0,-9999.0,'1111122,1111122,1111122' 
LUMCON,ioos:station:LUMCON:102:1,2017-06-01T07:15:00Z,29.1870,-90.6093,0.0,6.6,161.0,-9999.0,'1111122,1111122,1111122' 
LUMCON,ioos:station:LUMCON:102:1,2017-06-01T07:30:00Z,29.1870,-90.6093,0.0,7.0,161.0,-9999.0,'1111122,1111122,1111122' 
LUMCON,ioos:station:LUMCON:102:1,2017-06-01T07:45:00Z,29.1870,-90.6093,0.0,7.5,166.0,-9999.0,'1111122,1111122,1111122' 
LUMCON,ioos:station:LUMCON:102:1,2017-06-01T08:00:00Z,29.1870,-90.6093,0.0,6.6,182.0,-9999.0,'1111122,1111122,1111122' 
LUMCON,ioos:station:LUMCON:102:1,2017-06-01T08:15:00Z,29.1870,-90.6093,0.0,6.2,183.0,-9999.0,'1111122,1111122,1111122' 
LUMCON,ioos:station:LUMCON:102:1,2017-06-01T08:30:00Z,29.1870,-90.6093,0.0,5.8,191.0,-9999.0,'1111122,1111122,1111122' 
LUMCON,ioos:station:LUMCON:102:1,2017-06-01T08:45:00Z,29.1870,-90.6093,0.0,5.3,182.0,-9999.0,'1111122,1111122,1111122' 
LUMCON,ioos:station:LUMCON:102:1,2017-06-01T09:00:00Z,29.1870,-90.6093,0.0,4.2,168.0,-9999.0,'1111122,1111122,1111122' 
LUMCON,ioos:station:LUMCON:102:1,2017-06-01T09:15:00Z,29.1870,-90.6093,0.0,3.9,175.0,-9999.0,'1111122,1111122,1111122' 
LUMCON,ioos:station:LUMCON:102:1,2017-06-01T09:30:00Z,29.1870,-90.6093,0.0,3.2,158.0,-9999.0,'1111122,1111122,1111122' 
LUMCON,ioos:station:LUMCON:102:1,2017-06-01T09:45:00Z,29.1870,-90.6093,0.0,3.5,167.0,-9999.0,'1111122,1111122,1111122' 
LUMCON,ioos:station:LUMCON:102:1,2017-06-01T10:00:00Z,29.1870,-90.6093,0.0,2.7,154.0,-9999.0,'1111122,1111122,1111122' 
LUMCON,ioos:station:LUMCON:102:1,2017-06-01T10:15:00Z,29.1870,-90.6093,0.0,2.1,164.0,-9999.0,'1111122,1111122,1111122' 
LUMCON,ioos:station:LUMCON:102:1,2017-06-01T10:30:00Z,29.1870,-90.6093,0.0,2.7,164.0,-9999.0,'1111122,1111122,1111122' 
LUMCON,ioos:station:LUMCON:102:1,2017-06-01T10:45:00Z,29.1870,-90.6093,0.0,1.7,158.0,-9999.0,'1111122,1111122,1111122' 
LUMCON,ioos:station:LUMCON:102:1,2017-06-01T11:00:00Z,29.1870,-90.6093,0.0,1.9,137.0,-9999.0,'1111122,1111122,1111122' 
LUMCON,ioos:station:LUMCON:102:1,2017-06-01T11:15:00Z,29.1870,-90.6093,0.0,1.9,104.0,-9999.0,'1111122,1111122,1111122' 
LUMCON,ioos:station:LUMCON:102:1,2017-06-01T11:30:00Z,29.1870,-90.6093,0.0,2.2,119.0,-9999.0,'1111122,1111122,1111122' 
LUMCON,ioos:station:LUMCON:102:1,2017-06-01T11:45:00Z,29.1870,-90.6093,0.0,2.6,114.0,-9999.0,'1111122,1111122,1111122' 
LUMCON,ioos:station:LUMCON:102:1,2017-06-01T12:00:00Z,29.1870,-90.6093,0.0,2.4,95.0,-9999.0,'1111122,1111122,1111122' 
LUMCON,ioos:station:LUMCON:102:1,2017-06-01T12:15:00Z,29.1870,-90.6093,0.0,2.6,92.0,-9999.0,'1111122,1111122,1111122' 
LUMCON,ioos:station:LUMCON:102:1,2017-06-01T12:30:00Z,29.1870,-90.6093,0.0,3.7,88.0,-9999.0,'1111122,1111122,1111122' 
LUMCON,ioos:station:LUMCON:102:1,2017-06-01T12:45:00Z,29.1870,-90.6093,0.0,4.3,83.0,-9999.0,'1111122,1111122,1111122' 
LUMCON,ioos:station:LUMCON:102:1,2017-06-01T13:00:00Z,29.1870,-90.6093,0.0,4.7,87.0,-9999.0,'1111122,1111122,1111122' 
LUMCON,ioos:station:LUMCON:102:1,2017-06-01T13:15:00Z,29.1870,-90.6093,0.0,4.6,93.0,-9999.0,'1111122,1111122,1111122' 
LUMCON,ioos:station:LUMCON:102:1,2017-06-01T13:30:00Z,29.1870,-90.6093,0.0,4.8,91.0,-9999.0,'1111122,1111122,1111122' 
LUMCON,ioos:station:LUMCON:102:1,2017-06-01T13:45:00Z,29.1870,-90.6093,0.0,4.5,92.0,-9999.0,'1111122,1111122,1111122' 
LUMCON,ioos:station:LUMCON:102:1,2017-06-01T14:00:00Z,29.1870,-90.6093,0.0,4.7,103.0,-9999.0,'1111122,1111122,1111122' 
LUMCON,ioos:station:LUMCON:102:1,2017-06-01T14:15:00Z,29.1870,-90.6093,0.0,5.2,98.0,-9999.0,'1111122,1111122,1111122' 
LUMCON,ioos:station:LUMCON:102:1,2017-06-01T14:30:00Z,29.1870,-90.6093,0.0,5.4,103.0,-9999.0,'1111122,1111122,1111122' 
LUMCON,ioos:station:LUMCON:102:1,2017-06-01T14:45:00Z,29.1870,-90.6093,0.0,5.1,96.0,-9999.0,'1111122,1111122,1111122' 
LUMCON,ioos:station:LUMCON:102:1,2017-06-01T15:00:00Z,29.1870,-90.6093,0.0,5.9,99.0,-9999.0,'1111122,1111122,1111122' 
LUMCON,ioos:station:LUMCON:102:1,2017-06-01T15:15:00Z,29.1870,-90.6093,0.0,5.1,101.0,-9999.0,'1111122,1111122,1111122' 
LUMCON,ioos:station:LUMCON:102:1,2017-06-01T15:30:00Z,29.1870,-90.6093,0.0,5.0,126.0,-9999.0,'1111122,1111122,1111122' 
LUMCON,ioos:station:LUMCON:102:1,2017-06-01T15:45:00Z,29.1870,-90.6093,0.0,4.9,118.0,-9999.0,'1111122,1111122,1111122' 
LUMCON,ioos:station:LUMCON:102:1,2017-06-01T16:00:00Z,29.1870,-90.6093,0.0,5.4,115.0,-9999.0,'1111122,1111122,1111122' 
LUMCON,ioos:station:LUMCON:102:1,2017-06-01T16:15:00Z,29.1870,-90.6093,0.0,5.1,104.0,-9999.0,'1111122,1111122,1111122' 
LUMCON,ioos:station:LUMCON:102:1,2017-06-01T16:30:00Z,29.1870,-90.6093,0.0,5.0,112.0,-9999.0,'1111122,1111122,1111122' 
LUMCON,ioos:station:LUMCON:102:1,2017-06-01T16:45:00Z,29.1870,-90.6093,0.0,5.2,110.0,-9999.0,'1111122,1111122,1111122' 
LUMCON,ioos:station:LUMCON:102:1,2017-06-01T17:00:00Z,29.1870,-90.6093,0.0,4.8,114.0,-9999.0,'1111122,1111122,1111122' 
LUMCON,ioos:station:LUMCON:102:1,2017-06-01T17:15:00Z,29.1870,-90.6093,0.0,5.4,120.0,-9999.0,'1111122,1111122,1111122' 
LUMCON,ioos:station:LUMCON:102:1,2017-06-01T17:30:00Z,29.1870,-90.6093,0.0,5.1,115.0,-9999.0,'1111122,1111122,1111122' 
LUMCON,ioos:station:LUMCON:102:1,2017-06-01T17:45:00Z,29.1870,-90.6093,0.0,5.3,115.0,-9999.0,'1111122,1111122,1111122' 
LUMCON,ioos:station:LUMCON:102:1,2017-06-01T18:00:00Z,29.1870,-90.6093,0.0,4.3,127.0,-9999.0,'1111122,1111122,1111122' 
LUMCON,ioos:station:LUMCON:102:1,2017-06-01T18:15:00Z,29.1870,-90.6093,0.0,5.8,130.0,-9999.0,'1111122,1111122,1111122' 
LUMCON,ioos:station:LUMCON:102:1,2017-06-01T18:30:00Z,29.1870,-90.6093,0.0,5.8,142.0,-9999.0,'1111122,1111122,1111122' 
LUMCON,ioos:station:LUMCON:102:1,2017-06-01T18:45:00Z,29.1870,-90.6093,0.0,5.9,147.0,-9999.0,'1111122,1111122,1111122' 
LUMCON,ioos:station:LUMCON:102:1,2017-06-01T19:00:00Z,29.1870,-90.6093,0.0,6.2,144.0,-9999.0,'1111122,1111122,1111122' 
LUMCON,ioos:station:LUMCON:102:1,2017-06-01T19:15:00Z,29.1870,-90.6093,0.0,6.4,145.0,-9999.0,'1111122,1111122,1111122' 
LUMCON,ioos:station:LUMCON:102:1,2017-06-01T19:30:00Z,29.1870,-90.6093,0.0,10.8,192.0,-9999.0,'1111122,1111122,1111122' 
LUMCON,ioos:station:LUMCON:102:1,2017-06-01T19:45:00Z,29.1870,-90.6093,0.0,10.8,192.0,-9999.0,'1111122,1111122,1111122' 
LUMCON,ioos:station:LUMCON:102:1,2017-06-01T20:00:00Z,29.1870,-90.6093,0.0,9.3,187.0,-9999.0,'1111122,1111122,1111122' 
LUMCON,ioos:station:LUMCON:102:1,2017-06-01T20:15:00Z,29.1870,-90.6093,0.0,8.4,189.0,-9999.0,'1111122,1111122,1111122' 
LUMCON,ioos:station:LUMCON:102:1,2017-06-01T20:30:00Z,29.1870,-90.6093,0.0,7.8,185.0,-9999.0,'1111122,1111122,1111122' 
LUMCON,ioos:station:LUMCON:102:1,2017-06-01T20:45:00Z,29.1870,-90.6093,0.0,6.2,189.0,-9999.0,'1111122,1111122,1111122' 
LUMCON,ioos:station:LUMCON:102:1,2017-06-01T21:00:00Z,29.1870,-90.6093,0.0,5.8,190.0,-9999.0,'1111122,1111122,1111122' 
LUMCON,ioos:station:LUMCON:102:1,2017-06-01T21:15:00Z,29.1870,-90.6093,0.0,7.0,189.0,-9999.0,'1111122,1111122,1111122' 
LUMCON,ioos:station:LUMCON:102:1,2017-06-01T21:30:00Z,29.1870,-90.6093,0.0,7.2,202.0,-9999.0,'1111122,1111122,1111122' 
LUMCON,ioos:station:LUMCON:102:1,2017-06-01T21:45:00Z,29.1870,-90.6093,0.0,6.2,197.0,-9999.0,'1111122,1111122,1111122' 
LUMCON,ioos:station:LUMCON:102:1,2017-06-01T22:00:00Z,29.1870,-90.6093,0.0,5.7,191.0,-9999.0,'1111122,1111122,1111122' 
LUMCON,ioos:station:LUMCON:102:1,2017-06-01T22:15:00Z,29.1870,-90.6093,0.0,5.0,190.0,-9999.0,'1111122,1111122,1111122' 
LUMCON,ioos:station:LUMCON:102:1,2017-06-01T22:30:00Z,29.1870,-90.6093,0.0,5.1,179.0,-9999.0,'1111122,1111122,1111122' 
LUMCON,ioos:station:LUMCON:102:1,2017-06-01T22:45:00Z,29.1870,-90.6093,0.0,6.4,149.0,-9999.0,'1111122,1111122,1111122' 
LUMCON,ioos:station:LUMCON:102:1,2017-06-01T23:00:00Z,29.1870,-90.6093,0.0,5.7,140.0,-9999.0,'1111122,1111122,1111122' 
LUMCON,ioos:station:LUMCON:102:1,2017-06-01T23:15:00Z,29.1870,-90.6093,0.0,5.6,150.0,-9999.0,'1111122,1111122,1111122' 
LUMCON,ioos:station:LUMCON:102:1,2017-06-01T23:30:00Z,29.1870,-90.6093,0.0,5.5,145.0,-9999.0,'1111122,1111122,1111122' 
LUMCON,ioos:station:LUMCON:102:1,2017-06-01T23:45:00Z,29.1870,-90.6093,0.0,5.7,134.0,-9999.0,'1111122,1111122,1111122' 
LUMCON,ioos:station:LUMCON:102:1,2017-06-02T00:00:00Z,29.1870,-90.6093,0.0,5.2,130.0,-9999.0,'1111122,1111122,1111122' 
LUMCON,ioos:station:LUMCON:102:1,2017-06-02T00:15:00Z,29.1870,-90.6093,0.0,5.5,140.0,-9999.0,'1111122,1111122,1111122' 
LUMCON,ioos:station:LUMCON:102:1,2017-06-02T00:30:00Z,29.1870,-90.6093,0.0,5.9,140.0,-9999.0,'1111122,1111122,1111122' 
LUMCON,ioos:station:LUMCON:102:1,2017-06-02T00:45:00Z,29.1870,-90.6093,0.0,5.2,144.0,-9999.0,'1111122,1111122,1111122' 
LUMCON,ioos:station:LUMCON:102:1,2017-06-02T01:00:00Z,29.1870,-90.6093,0.0,5.7,149.0,-9999.0,'1111122,1111122,1111122' 
LUMCON,ioos:station:LUMCON:102:1,2017-06-02T01:15:00Z,29.1870,-90.6093,0.0,6.6,142.0,-9999.0,'1111122,1111122,1111122' 
LUMCON,ioos:station:LUMCON:102:1,2017-06-02T01:30:00Z,29.1870,-90.6093,0.0,5.9,140.0,-9999.0,'1111122,1111122,1111122' 
LUMCON,ioos:station:LUMCON:102:1,2017-06-02T01:45:00Z,29.1870,-90.6093,0.0,6.3,136.0,-9999.0,'1111122,1111122,1111122' 
LUMCON,ioos:station:LUMCON:102:1,2017-06-02T02:00:00Z,29.1870,-90.6093,0.0,5.5,134.0,-9999.0,'1111122,1111122,1111122' 
LUMCON,ioos:station:LUMCON:102:1,2017-06-02T02:15:00Z,29.1870,-90.6093,0.0,6.4,130.0,-9999.0,'1111122,1111122,1111122' 
LUMCON,ioos:station:LUMCON:102:1,2017-06-02T02:30:00Z,29.1870,-90.6093,0.0,5.7,128.0,-9999.0,'1111122,1111122,1111122' 
LUMCON,ioos:station:LUMCON:102:1,2017-06-02T02:45:00Z,29.1870,-90.6093,0.0,6.1,136.0,-9999.0,'1111122,1111122,1111122' 
LUMCON,ioos:station:LUMCON:102:1,2017-06-02T03:00:00Z,29.1870,-90.6093,0.0,6.5,143.0,-9999.0,'1111122,1111122,1111122' 
LUMCON,ioos:station:LUMCON:102:1,2017-06-02T03:15:00Z,29.1870,-90.6093,0.0,7.3,134.0,-9999.0,'1111122,1111122,1111122' 
LUMCON,ioos:station:LUMCON:102:1,2017-06-02T03:30:00Z,29.1870,-90.6093,0.0,7.0,142.0,-9999.0,'1111122,1111122,1111122' 
LUMCON,ioos:station:LUMCON:102:1,2017-06-02T03:45:00Z,29.1870,-90.6093,0.0,6.8,149.0,-9999.0,'1111122,1111122,1111122' 
LUMCON,ioos:station:LUMCON:102:1,2017-06-02T04:00:00Z,29.1870,-90.6093,0.0,7.6,146.0,-9999.0,'1111122,1111122,1111122' 
LUMCON,ioos:station:LUMCON:102:1,2017-06-02T04:15:00Z,29.1870,-90.6093,0.0,7.3,159.0,-9999.0,'1111122,1111122,1111122' 
LUMCON,ioos:station:LUMCON:102:1,2017-06-02T04:30:00Z,29.1870,-90.6093,0.0,7.2,150.0,-9999.0,'1111122,1111122,1111122' 
LUMCON,ioos:station:LUMCON:102:1,2017-06-02T04:45:00Z,29.1870,-90.6093,0.0,6.4,151.0,-9999.0,'1111122,1111122,1111122' 
LUMCON,ioos:station:LUMCON:102:1,2017-06-02T05:00:00Z,29.1870,-90.6093,0.0,8.5,154.0,-9999.0,'1111122,1111122,1111122' 
LUMCON,ioos:station:LUMCON:102:1,2017-06-02T05:15:00Z,29.1870,-90.6093,0.0,7.0,165.0,-9999.0,'1111122,1111122,1111122' 
LUMCON,ioos:station:LUMCON:102:1,2017-06-02T05:30:00Z,29.1870,-90.6093,0.0,6.6,156.0,-9999.0,'1111122,1111122,1111122' 
LUMCON,ioos:station:LUMCON:102:1,2017-06-02T05:45:00Z,29.1870,-90.6093,0.0,5.8,163.0,-9999.0,'1111122,1111122,1111122' 
LUMCON,ioos:station:LUMCON:102:1,2017-06-02T06:00:00Z,29.1870,-90.6093,0.0,6.2,164.0,-9999.0,'1111122,1111122,1111122' 
LUMCON,ioos:station:LUMCON:102:1,2017-06-02T06:15:00Z,29.1870,-90.6093,0.0,6.8,168.0,-9999.0,'1111122,1111122,1111122' 
LUMCON,ioos:station:LUMCON:102:1,2017-06-02T06:30:00Z,29.1870,-90.6093,0.0,6.7,163.0,-9999.0,'1111122,1111122,1111122' 
LUMCON,ioos:station:LUMCON:102:1,2017-06-02T06:45:00Z,29.1870,-90.6093,0.0,6.3,156.0,-9999.0,'1111122,1111122,1111122' 
LUMCON,ioos:station:LUMCON:102:1,2017-06-02T07:00:00Z,29.1870,-90.6093,0.0,5.0,147.0,-9999.0,'1111122,1111122,1111122' 
LUMCON,ioos:station:LUMCON:102:1,2017-06-02T07:15:00Z,29.1870,-90.6093,0.0,5.7,154.0,-9999.0,'1111122,1111122,1111122' 
LUMCON,ioos:station:LUMCON:102:1,2017-06-02T07:30:00Z,29.1870,-90.6093,0.0,5.1,149.0,-9999.0,'1111122,1111122,1111122' 
LUMCON,ioos:station:LUMCON:102:1,2017-06-02T07:45:00Z,29.1870,-90.6093,0.0,5.6,159.0,-9999.0,'1111122,1111122,1111122' 
LUMCON,ioos:station:LUMCON:102:1,2017-06-02T08:00:00Z,29.1870,-90.6093,0.0,6.3,151.0,-9999.0,'1111122,1111122,1111122' 
LUMCON,ioos:station:LUMCON:102:1,2017-06-02T08:15:00Z,29.1870,-90.6093,0.0,5.4,147.0,-9999.0,'1111122,1111122,1111122' 
LUMCON,ioos:station:LUMCON:102:1,2017-06-02T08:30:00Z,29.1870,-90.6093,0.0,5.8,148.0,-9999.0,'1111122,1111122,1111122' 
LUMCON,ioos:station:LUMCON:102:1,2017-06-02T08:45:00Z,29.1870,-90.6093,0.0,5.0,143.0,-9999.0,'1111122,1111122,1111122' 
LUMCON,ioos:station:LUMCON:102:1,2017-06-02T09:00:00Z,29.1870,-90.6093,0.0,5.4,142.0,-9999.0,'1111122,1111122,1111122' 
LUMCON,ioos:station:LUMCON:102:1,2017-06-02T09:15:00Z,29.1870,-90.6093,0.0,5.9,136.0,-9999.0,'1111122,1111122,1111122' 
LUMCON,ioos:station:LUMCON:102:1,2017-06-02T09:30:00Z,29.1870,-90.6093,0.0,6.9,135.0,-9999.0,'1111122,1111122,1111122' 
LUMCON,ioos:station:LUMCON:102:1,2017-06-02T09:45:00Z,29.1870,-90.6093,0.0,7.0,134.0,-9999.0,'1111122,1111122,1111122' 
LUMCON,ioos:station:LUMCON:102:1,2017-06-02T10:00:00Z,29.1870,-90.6093,0.0,7.8,129.0,-9999.0,'1111122,1111122,1111122' 
LUMCON,ioos:station:LUMCON:102:1,2017-06-02T10:15:00Z,29.1870,-90.6093,0.0,7.0,140.0,-9999.0,'1111122,1111122,1111122' 
LUMCON,ioos:station:LUMCON:102:1,2017-06-02T10:30:00Z,29.1870,-90.6093,0.0,7.1,139.0,-9999.0,'1111122,1111122,1111122' 
LUMCON,ioos:station:LUMCON:102:1,2017-06-02T10:45:00Z,29.1870,-90.6093,0.0,7.4,148.0,-9999.0,'1111122,1111122,1111122' 
LUMCON,ioos:station:LUMCON:102:1,2017-06-02T11:00:00Z,29.1870,-90.6093,0.0,8.4,139.0,-9999.0,'1111122,1111122,1111122' 
LUMCON,ioos:station:LUMCON:102:1,2017-06-02T11:15:00Z,29.1870,-90.6093,0.0,6.9,143.0,-9999.0,'1111122,1111122,1111122' 
LUMCON,ioos:station:LUMCON:102:1,2017-06-02T11:30:00Z,29.1870,-90.6093,0.0,6.9,150.0,-9999.0,'1111122,1111122,1111122' 
LUMCON,ioos:station:LUMCON:102:1,2017-06-02T11:45:00Z,29.1870,-90.6093,0.0,7.3,138.0,-9999.0,'1111122,1111122,1111122' 
LUMCON,ioos:station:LUMCON:102:1,2017-06-02T12:00:00Z,29.1870,-90.6093,0.0,8.5,157.0,-9999.0,'1111122,1111122,1111122' 
LUMCON,ioos:station:LUMCON:102:1,2017-06-02T12:15:00Z,29.1870,-90.6093,0.0,7.3,155.0,-9999.0,'1111122,1111122,1111122' 
LUMCON,ioos:station:LUMCON:102:1,2017-06-02T12:30:00Z,29.1870,-90.6093,0.0,7.5,149.0,-9999.0,'1111122,1111122,1111122' 
LUMCON,ioos:station:LUMCON:102:1,2017-06-02T12:45:00Z,29.1870,-90.6093,0.0,7.7,160.0,-9999.0,'1111122,1111122,1111122' 
LUMCON,ioos:station:LUMCON:102:1,2017-06-02T13:00:00Z,29.1870,-90.6093,0.0,8.6,145.0,-9999.0,'1111122,1111122,1111122' 
LUMCON,ioos:station:LUMCON:102:1,2017-06-02T13:15:00Z,29.1870,-90.6093,0.0,7.7,144.0,-9999.0,'1111122,1111122,1111122' 
LUMCON,ioos:station:LUMCON:102:1,2017-06-02T13:30:00Z,29.1870,-90.6093,0.0,8.3,150.0,-9999.0,'1111122,1111122,1111122' 
LUMCON,ioos:station:LUMCON:102:1,2017-06-02T13:45:00Z,29.1870,-90.6093,0.0,8.9,152.0,-9999.0,'1111122,1111122,1111122' 
LUMCON,ioos:station:LUMCON:102:1,2017-06-02T14:00:00Z,29.1870,-90.6093,0.0,7.4,143.0,-9999.0,'1111122,1111122,1111122' 
LUMCON,ioos:station:LUMCON:102:1,2017-06-02T14:15:00Z,29.1870,-90.6093,0.0,7.4,125.0,-9999.0,'1111122,1111122,1111122' 
LUMCON,ioos:station:LUMCON:102:1,2017-06-02T14:30:00Z,29.1870,-90.6093,0.0,7.4,138.0,-9999.0,'1111122,1111122,1111122' 
LUMCON,ioos:station:LUMCON:102:1,2017-06-02T14:45:00Z,29.1870,-90.6093,0.0,7.6,122.0,-9999.0,'1111122,1111122,1111122' 
LUMCON,ioos:station:LUMCON:102:1,2017-06-02T15:00:00Z,29.1870,-90.6093,0.0,8.5,126.0,-9999.0,'1111122,1111122,1111122' 
LUMCON,ioos:station:LUMCON:102:1,2017-06-02T15:15:00Z,29.1870,-90.6093,0.0,9.7,113.0,-9999.0,'1111122,1111122,1111122' 
LUMCON,ioos:station:LUMCON:102:1,2017-06-02T15:30:00Z,29.1870,-90.6093,0.0,7.7,104.0,-9999.0,'1111122,1111122,1111122' 
LUMCON,ioos:station:LUMCON:102:1,2017-06-02T15:45:00Z,29.1870,-90.6093,0.0,9.3,114.0,-9999.0,'1111122,1111122,1111122' 
LUMCON,ioos:station:LUMCON:102:1,2017-06-02T16:00:00Z,29.1870,-90.6093,0.0,8.4,88.0,-9999.0,'1111122,1111122,1111122' 
LUMCON,ioos:station:LUMCON:102:1,2017-06-02T16:15:00Z,29.1870,-90.6093,0.0,8.2,91.0,-9999.0,'1111122,1111122,1111122' 
LUMCON,ioos:station:LUMCON:102:1,2017-06-02T16:30:00Z,29.1870,-90.6093,0.0,8.7,94.0,-9999.0,'1111122,1111122,1111122' 
LUMCON,ioos:station:LUMCON:102:1,2017-06-02T16:45:00Z,29.1870,-90.6093,0.0,10.0,110.0,-9999.0,'1111122,1111122,1111122' 
LUMCON,ioos:station:LUMCON:102:1,2017-06-02T17:00:00Z,29.1870,-90.6093,0.0,10.8,110.0,-9999.0,'1111122,1111122,1111122' 
LUMCON,ioos:station:LUMCON:102:1,2017-06-02T17:15:00Z,29.1870,-90.6093,0.0,9.3,98.0,-9999.0,'1111122,1111122,1111122' 
LUMCON,ioos:station:LUMCON:102:1,2017-06-02T17:30:00Z,29.1870,-90.6093,0.0,8.3,104.0,-9999.0,'1111122,1111122,1111122' 
LUMCON,ioos:station:LUMCON:102:1,2017-06-02T17:45:00Z,29.1870,-90.6093,0.0,9.8,105.0,-9999.0,'1111122,1111122,1111122' 
LUMCON,ioos:station:LUMCON:102:1,2017-06-02T18:00:00Z,29.1870,-90.6093,0.0,9.3,104.0,-9999.0,'1111122,1111122,1111122' 
LUMCON,ioos:station:LUMCON:102:1,2017-06-02T18:15:00Z,29.1870,-90.6093,0.0,9.6,112.0,-9999.0,'1111122,1111122,1111122' 
LUMCON,ioos:station:LUMCON:102:1,2017-06-02T18:30:00Z,29.1870,-90.6093,0.0,9.3,103.0,-9999.0,'1111122,1111122,1111122' 
LUMCON,ioos:station:LUMCON:102:1,2017-06-02T18:45:00Z,29.1870,-90.6093,0.0,9.4,117.0,-9999.0,'1111122,1111122,1111122' 
LUMCON,ioos:station:LUMCON:102:1,2017-06-02T19:00:00Z,29.1870,-90.6093,0.0,9.5,114.0,-9999.0,'1111122,1111122,1111122' 
LUMCON,ioos:station:LUMCON:102:1,2017-06-02T19:15:00Z,29.1870,-90.6093,0.0,7.8,108.0,-9999.0,'1111122,1111122,1111122' 
LUMCON,ioos:station:LUMCON:102:1,2017-06-02T19:30:00Z,29.1870,-90.6093,0.0,6.7,124.0,-9999.0,'1111122,1111122,1111122' 
LUMCON,ioos:station:LUMCON:102:1,2017-06-02T19:45:00Z,29.1870,-90.6093,0.0,8.0,145.0,-9999.0,'1111122,1111122,1111122' 
LUMCON,ioos:station:LUMCON:102:1,2017-06-02T20:00:00Z,29.1870,-90.6093,0.0,8.3,148.0,-9999.0,'1111122,1111122,1111122' 
LUMCON,ioos:station:LUMCON:102:1,2017-06-02T20:15:00Z,29.1870,-90.6093,0.0,9.0,148.0,-9999.0,'1111122,1111122,1111122' 
LUMCON,ioos:station:LUMCON:102:1,2017-06-02T20:30:00Z,29.1870,-90.6093,0.0,9.4,138.0,-9999.0,'1111122,1111122,1111122' 
LUMCON,ioos:station:LUMCON:102:1,2017-06-02T20:45:00Z,29.1870,-90.6093,0.0,6.6,129.0,-9999.0,'1111122,1111122,1111122' 
LUMCON,ioos:station:LUMCON:102:1,2017-06-02T21:00:00Z,29.1870,-90.6093,0.0,6.4,122.0,-9999.0,'1111122,1111122,1111122' 
LUMCON,ioos:station:LUMCON:102:1,2017-06-02T21:15:00Z,29.1870,-90.6093,0.0,7.7,147.0,-9999.0,'1111122,1111122,1111122' 
LUMCON,ioos:station:LUMCON:102:1,2017-06-02T21:30:00Z,29.1870,-90.6093,0.0,7.4,151.0,-9999.0,'1111122,1111122,1111122' 
LUMCON,ioos:station:LUMCON:102:1,2017-06-02T21:45:00Z,29.1870,-90.6093,0.0,6.0,172.0,-9999.0,'1111122,1111122,1111122' 
LUMCON,ioos:station:LUMCON:102:1,2017-06-02T22:00:00Z,29.1870,-90.6093,0.0,5.4,144.0,-9999.0,'1111122,1111122,1111122' 
LUMCON,ioos:station:LUMCON:102:1,2017-06-02T22:15:00Z,29.1870,-90.6093,0.0,4.6,141.0,-9999.0,'1111122,1111122,1111122' 
LUMCON,ioos:station:LUMCON:102:1,2017-06-02T22:30:00Z,29.1870,-90.6093,0.0,5.8,136.0,-9999.0,'1111122,1111122,1111122' 
LUMCON,ioos:station:LUMCON:102:1,2017-06-02T22:45:00Z,29.1870,-90.6093,0.0,4.3,146.0,-9999.0,'1111122,1111122,1111122' 
LUMCON,ioos:station:LUMCON:102:1,2017-06-02T23:00:00Z,29.1870,-90.6093,0.0,7.2,131.0,-9999.0,'1111122,1111122,1111122' 
LUMCON,ioos:station:LUMCON:102:1,2017-06-02T23:15:00Z,29.1870,-90.6093,0.0,8.4,134.0,-9999.0,'1111122,1111122,1111122' 
LUMCON,ioos:station:LUMCON:102:1,2017-06-02T23:30:00Z,29.1870,-90.6093,0.0,5.8,159.0,-9999.0,'1111122,1111122,1111122' 
LUMCON,ioos:station:LUMCON:102:1,2017-06-02T23:45:00Z,29.1870,-90.6093,0.0,3.7,177.0,-9999.0,'1111122,1111122,1111122' 
LUMCON,ioos:station:LUMCON:102:1,2017-06-03T00:00:00Z,29.1870,-90.6093,0.0,3.6,189.0,-9999.0,'1111122,1111122,1111122' 
LUMCON,ioos:station:LUMCON:102:1,2017-06-03T00:15:00Z,29.1870,-90.6093,0.0,3.8,199.0,-9999.0,'1111122,1111122,1111122' 
LUMCON,ioos:station:LUMCON:102:1,2017-06-03T00:30:00Z,29.1870,-90.6093,0.0,2.5,187.0,-9999.0,'1111122,1111122,1111122' 
LUMCON,ioos:station:LUMCON:102:1,2017-06-03T00:45:00Z,29.1870,-90.6093,0.0,4.4,170.0,-9999.0,'1111122,1111122,1111122' 
LUMCON,ioos:station:LUMCON:102:1,2017-06-03T01:00:00Z,29.1870,-90.6093,0.0,5.2,166.0,-9999.0,'1111122,1111122,1111122' 
LUMCON,ioos:station:LUMCON:102:1,2017-06-03T01:15:00Z,29.1870,-90.6093,0.0,6.1,161.0,-9999.0,'1111122,1111122,1111122' 
LUMCON,ioos:station:LUMCON:102:1,2017-06-03T01:30:00Z,29.1870,-90.6093,0.0,4.9,141.0,-9999.0,'1111122,1111122,1111122' 